^^
B2 Weather Station Historical Data
Daily Summary for June 12, 2019 Units:  English    Metric   Both
Daily Weekly Monthly Yearly Custom
  High: Low: Average:
Temperature: 76.5 °F 57.7 °F 66 °F
Dew Point: 59.4 °F 49.4 °F 53 °F
Humidity: 94% 43% 65%
Wind Speed: 17.3mph 1mph 8mph
Wind Gust: 11.4mph - -
Wind- - SSW
Pressure: 30.02 in 29.74 in -
Precipitation: 0.34 in    
Historical Graphs
 
 
Tabular Data for June 12, 2019
Time Temperature Dew Point Pressure Wind Wind Speed Wind Gust Humidity Rainfall Rate (Hourly) solar
00:04 65.4 °F 51.1 °F 30.02 in SSE 5.8 mph 6 mph 60% 0 in 0.00 W/m2
00:09 65.6 °F 50.9 °F 30.01 in South 10.4 mph 5.2 mph 59% 0 in 0.00 W/m2
00:14 66.2 °F 51 °F 30.01 in SSW 11.5 mph 4.9 mph 58% 0 in 0.00 W/m2
00:19 66.6 °F 50.9 °F 30.01 in South 9.2 mph 6.4 mph 57% 0 in 0.00 W/m2
00:24 66.9 °F 50.7 °F 30.01 in South 11.5 mph 6.6 mph 56% 0 in 0.00 W/m2
00:29 67 °F 50.8 °F 30.01 in South 9.2 mph 4.3 mph 56% 0 in 0.00 W/m2
00:34 67.1 °F 50.9 °F 30.01 in South 10 mph 6 mph 56% 0 in 0.00 W/m2
00:39 67.1 °F 50.9 °F 30.01 in SSW 11.5 mph 2.2 mph 56% 0 in 0.00 W/m2
00:44 67.1 °F 50.9 °F 30.01 in SSW 6.9 mph 5.1 mph 56% 0 in 0.00 W/m2
00:49 67.2 °F 51 °F 30.01 in SSW 9.2 mph 5.3 mph 56% 0 in 0.00 W/m2
00:54 67 °F 50.8 °F 30.01 in SW 8.1 mph 6.1 mph 56% 0 in 0.00 W/m2
00:59 67 °F 50.8 °F 30.01 in South 8.1 mph 5.4 mph 56% 0 in 0.00 W/m2
01:04 66.8 °F 50.6 °F 30.01 in SSW 11.5 mph 3.8 mph 56% 0 in 0.00 W/m2
01:09 66.8 °F 51.1 °F 30.01 in SSW 8.1 mph 5.8 mph 57% 0 in 0.00 W/m2
01:14 66.7 °F 51 °F 30.01 in South 8.1 mph 4.7 mph 57% 0 in 0.00 W/m2
01:19 66.6 °F 50.9 °F 30.01 in SSE 6.9 mph 4.2 mph 57% 0 in 0.00 W/m2
01:24 66.6 °F 50.9 °F 30.00 in SSE 10.4 mph 4.4 mph 57% 0 in 0.00 W/m2
01:29 66.5 °F 50.8 °F 30.00 in SSW 8.1 mph 4.4 mph 57% 0 in 0.00 W/m2
01:34 66.5 °F 50.8 °F 30.00 in South 13.8 mph 7.1 mph 57% 0 in 0.00 W/m2
01:39 66.6 °F 50.9 °F 30.00 in South 10.4 mph 6.3 mph 57% 0 in 0.00 W/m2
01:44 66.7 °F 50.5 °F 30.00 in South 9.2 mph 5.8 mph 56% 0 in 0.00 W/m2
01:49 66.8 °F 50.6 °F 29.99 in SSW 9 mph 5.9 mph 56% 0 in 0.00 W/m2
01:54 67 °F 50.8 °F 29.99 in South 11.5 mph 4.7 mph 56% 0 in 0.00 W/m2
01:59 67 °F 50.8 °F 29.99 in South 11.5 mph 7.1 mph 56% 0 in 0.00 W/m2
02:04 66.9 °F 50.7 °F 29.99 in SSW 9.2 mph 5.8 mph 56% 0 in 0.00 W/m2
02:09 66.8 °F 51.1 °F 29.99 in SSW 9.2 mph 7.4 mph 57% 0 in 0.00 W/m2
02:14 66.7 °F 50.5 °F 29.99 in South 11.5 mph 8.7 mph 56% 0 in 0.00 W/m2
02:19 66.7 °F 51 °F 29.99 in SSE 6.9 mph 4.1 mph 57% 0 in 0.00 W/m2
02:24 66.4 °F 51.2 °F 29.99 in SSW 8.1 mph 4.4 mph 58% 0 in 0.00 W/m2
02:29 66.2 °F 51 °F 29.98 in South 8.1 mph 6.9 mph 58% 0 in 0.00 W/m2
02:34 66.1 °F 50.9 °F 29.98 in SSE 6.9 mph 5.1 mph 58% 0 in 0.00 W/m2
02:39 66 °F 50.8 °F 29.98 in SSE 9.2 mph 5.3 mph 58% 0 in 0.00 W/m2
02:44 65.9 °F 50.7 °F 29.98 in South 13 mph 4.9 mph 58% 0 in 0.00 W/m2
02:49 65.9 °F 51.2 °F 29.98 in South 10 mph 6 mph 59% 0 in 0.00 W/m2
02:54 65.8 °F 50.6 °F 29.98 in SSE 7 mph 4.9 mph 58% 0 in 0.00 W/m2
02:59 65.8 °F 50.6 °F 29.98 in SSE 6.9 mph 4.9 mph 58% 0 in 0.00 W/m2
03:04 65.8 °F 50.6 °F 29.98 in South 8.1 mph 7 mph 58% 0 in 0.00 W/m2
03:09 65.8 °F 50.6 °F 29.97 in SSW 10.4 mph 6.5 mph 58% 0 in 0.00 W/m2
03:14 65.8 °F 50.6 °F 29.97 in SSE 10.4 mph 4.3 mph 58% 0 in 0.00 W/m2
03:19 65.7 °F 50.5 °F 29.97 in SSE 8.1 mph 4.2 mph 58% 0 in 0.00 W/m2
03:24 65.6 °F 50.9 °F 29.97 in South 8.1 mph 3.2 mph 59% 0 in 0.00 W/m2
03:29 65.3 °F 50.6 °F 29.97 in SSW 9.2 mph 3.4 mph 59% 0 in 0.00 W/m2
03:34 65.2 °F 50.5 °F 29.97 in SSW 4.6 mph 2.2 mph 59% 0 in 0.00 W/m2
03:39 65.1 °F 50.4 °F 29.96 in South 5.8 mph 4.1 mph 59% 0 in 0.00 W/m2
03:44 65 °F 50.8 °F 29.97 in South 6.9 mph 3.8 mph 60% 0 in 0.00 W/m2
03:49 64.8 °F 50.6 °F 29.97 in SSW 8.1 mph 3.9 mph 60% 0 in 0.00 W/m2
03:54 64.7 °F 50.5 °F 29.97 in South 3.5 mph 3.6 mph 60% 0 in 0.00 W/m2
03:59 64.6 °F 50.4 °F 29.97 in South 5.8 mph 2.8 mph 60% 0 in 0.00 W/m2
04:04 64.5 °F 50.3 °F 29.96 in SSE 8.1 mph 3.6 mph 60% 0 in 0.00 W/m2
04:09 64.3 °F 50.6 °F 29.96 in South 6.9 mph 3.3 mph 61% 0 in 0.00 W/m2
04:14 64.2 °F 50.5 °F 29.96 in SSW 5.8 mph 4 mph 61% 0 in 0.00 W/m2
04:19 64.3 °F 50.1 °F 29.96 in SSE 6.9 mph 1.9 mph 60% 0 in 0.00 W/m2
04:24 64.5 °F 50.3 °F 29.96 in South 9.2 mph 4.4 mph 60% 0 in 0.00 W/m2
04:29 64.6 °F 50.4 °F 29.96 in South 5 mph 3.1 mph 60% 0 in 0.00 W/m2
04:34 64.6 °F 49.9 °F 29.97 in South 7 mph 4.7 mph 59% 0 in 0.00 W/m2
04:39 64.7 °F 50 °F 29.96 in South 6.9 mph 3.6 mph 59% 0 in 0.00 W/m2
04:44 64.8 °F 50.1 °F 29.96 in South 3.5 mph 3.2 mph 59% 0 in 0.00 W/m2
04:49 64.8 °F 49.7 °F 29.96 in SSW 6.9 mph 4.2 mph 58% 0 in 0.00 W/m2
04:54 64.8 °F 49.7 °F 29.96 in South 4.6 mph 2.3 mph 58% 0 in 0.00 W/m2
04:59 64.6 °F 49.9 °F 29.96 in South 6.9 mph 3.8 mph 59% 0 in 0.00 W/m2
05:04 64.4 °F 49.8 °F 29.96 in SSE 6 mph 3.2 mph 59% 0 in 0.00 W/m2
05:09 64.2 °F 49.6 °F 29.96 in South 5.8 mph 3.8 mph 59% 0 in 0.00 W/m2
05:14 64.1 °F 49.5 °F 29.96 in SSW 5.8 mph 2 mph 59% 0 in 0.00 W/m2
05:19 64 °F 49.4 °F 29.96 in SSW 6.9 mph 2.9 mph 59% 0 in 0.00 W/m2
05:24 63.9 °F 49.7 °F 29.95 in South 4.6 mph 2.6 mph 60% 0 in 0.00 W/m2
05:29 63.7 °F 49.5 °F 29.95 in SSW 4.6 mph 2.8 mph 60% 0 in 0.00 W/m2
05:34 63.6 °F 49.9 °F 29.95 in South 6.9 mph 3.2 mph 61% 0 in 5.00 W/m2
05:39 63.5 °F 49.8 °F 29.95 in South 5.8 mph 3.6 mph 61% 0 in 9.00 W/m2
05:44 63.7 °F 49.5 °F 29.95 in SSW 6.9 mph 2.6 mph 60% 0 in 12.00 W/m2
05:49 64 °F 49.8 °F 29.95 in South 6.9 mph 4.9 mph 60% 0 in 18.00 W/m2
05:54 64.2 °F 49.6 °F 29.95 in South 6 mph 4.1 mph 59% 0 in 26.00 W/m2
05:59 64.5 °F 50.3 °F 29.95 in SSW 6.9 mph 2.5 mph 60% 0 in 26.00 W/m2
06:04 64.7 °F 50 °F 29.95 in SSW 5.8 mph 2 mph 59% 0 in 40.00 W/m2
06:09 64.9 °F 49.8 °F 29.95 in SSW 5.8 mph 4.6 mph 58% 0 in 39.00 W/m2
06:14 65.2 °F 50 °F 29.95 in South 5.8 mph 3.2 mph 58% 0 in 47.00 W/m2
06:19 65.3 °F 50.1 °F 29.95 in SSW 8.1 mph 2.8 mph 58% 0 in 46.00 W/m2
06:24 65.4 °F 50.2 °F 29.95 in SW 5.8 mph 3.6 mph 58% 0 in 47.00 W/m2
06:29 65.3 °F 50.6 °F 29.95 in South 11.5 mph 3.7 mph 59% 0 in 65.00 W/m2
06:34 65.3 °F 50.6 °F 29.95 in South 10.4 mph 2.6 mph 59% 0 in 95.00 W/m2
06:39 65.4 °F 50.7 °F 29.95 in South 9.2 mph 4.3 mph 59% 0 in 104.00 W/m2
06:44 65.4 °F 51.1 °F 29.95 in South 4 mph 3.6 mph 60% 0 in 100.00 W/m2
06:49 65.4 °F 50.7 °F 29.95 in SSW 8.1 mph 2.6 mph 59% 0 in 121.00 W/m2
06:54 65.6 °F 50.9 °F 29.95 in South 6.9 mph 3.6 mph 59% 0 in 105.00 W/m2
06:59 65.5 °F 50.8 °F 29.94 in SE 7 mph 3.5 mph 59% 0 in 102.00 W/m2
07:04 65.5 °F 51.2 °F 29.94 in South 4.6 mph 3.1 mph 60% 0 in 134.00 W/m2
07:09 65.5 °F 50.8 °F 29.94 in South 8.1 mph 2.5 mph 59% 0 in 105.00 W/m2
07:14 65.6 °F 51.3 °F 29.94 in South 6 mph 3.8 mph 60% 0 in 98.00 W/m2
07:19 65.5 °F 50.8 °F 29.94 in SSW 8.1 mph 3 mph 59% 0 in 113.00 W/m2
07:24 65.5 °F 50.8 °F 29.94 in South 8.1 mph 4.1 mph 59% 0 in 148.00 W/m2
07:29 65.7 °F 51 °F 29.94 in South 8.1 mph 3.6 mph 59% 0 in 141.00 W/m2
07:34 65.8 °F 51.1 °F 29.93 in SSE 6.9 mph 2.9 mph 59% 0 in 130.00 W/m2
07:39 65.8 °F 50.6 °F 29.93 in SSW 8.1 mph 3.8 mph 58% 0 in 155.00 W/m2
07:44 66 °F 50.3 °F 29.93 in South 4.6 mph 2 mph 57% 0 in 155.00 W/m2
07:49 66.3 °F 50.6 °F 29.93 in SSW 5.8 mph 3.7 mph 57% 0 in 267.00 W/m2
07:54 66.9 °F 50.7 °F 29.93 in SW 9.2 mph 5.7 mph 56% 0 in 348.00 W/m2
07:59 67.6 °F 51.3 °F 29.93 in South 8.1 mph 5.2 mph 56% 0 in 404.00 W/m2
08:04 68 °F 51.2 °F 29.93 in SSW 8.1 mph 3.5 mph 55% 0 in 250.00 W/m2
08:09 68.2 °F 51.4 °F 29.93 in SSW 8 mph 5.8 mph 55% 0 in 278.00 W/m2
08:14 68.5 °F 51.7 °F 29.93 in SSW 5.8 mph 4.2 mph 55% 0 in 327.00 W/m2
08:19 68.9 °F 52.1 °F 29.93 in SSW 4.6 mph 4.3 mph 55% 0 in 304.00 W/m2
08:24 69.3 °F 51.9 °F 29.93 in South 11.5 mph 5.2 mph 54% 0 in 336.00 W/m2
08:29 69.9 °F 53.5 °F 29.92 in SSW 6.9 mph 5.1 mph 56% 0 in 489.00 W/m2
08:34 70.6 °F 52.1 °F 29.92 in SSW 11.5 mph 4.8 mph 52% 0 in 496.00 W/m2
08:39 71 °F 52.5 °F 29.92 in SSW 11.5 mph 4.2 mph 52% 0 in 417.00 W/m2
08:44 71.1 °F 52.6 °F 29.92 in South 9.2 mph 3.3 mph 52% 0 in 281.00 W/m2
08:49 71.1 °F 52 °F 29.91 in SW 8 mph 6.1 mph 51% 0 in 288.00 W/m2
08:54 71.1 °F 52 °F 29.91 in SSE 5.8 mph 3.2 mph 51% 0 in 246.00 W/m2
08:59 71.2 °F 51.1 °F 29.91 in SSE 12.7 mph 9.5 mph 49% 0 in 211.00 W/m2
09:04 71 °F 51.4 °F 29.91 in South 10.4 mph 7.4 mph 50% 0 in 230.00 W/m2
09:09 70.9 °F 51.3 °F 29.91 in South 11.5 mph 7.7 mph 50% 0 in 234.00 W/m2
09:14 71.1 °F 51.5 °F 29.91 in South 10.4 mph 6.3 mph 50% 0 in 292.00 W/m2
09:19 71.4 °F 51.2 °F 29.91 in SSE 11 mph 9.5 mph 49% 0 in 302.00 W/m2
09:24 71.5 °F 51.3 °F 29.91 in South 11.5 mph 7.7 mph 49% 0 in 334.00 W/m2
09:29 71.9 °F 51.1 °F 29.90 in SSE 15 mph 8.2 mph 48% 0 in 452.00 W/m2
09:34 72.2 °F 52 °F 29.90 in South 13.8 mph 10.2 mph 49% 0 in 406.00 W/m2
09:39 72.4 °F 52.2 °F 29.89 in SSE 12.7 mph 8.1 mph 49% 0 in 355.00 W/m2
09:44 72.6 °F 52.3 °F 29.89 in South 12.7 mph 8.5 mph 49% 0 in 343.00 W/m2
09:49 72.6 °F 51.8 °F 29.89 in South 12.7 mph 7.4 mph 48% 0 in 360.00 W/m2
09:54 72.8 °F 50.8 °F 29.89 in South 11.5 mph 7.1 mph 46% 0 in 348.00 W/m2
09:59 72.9 °F 50.9 °F 29.89 in SSE 15 mph 9.9 mph 46% 0 in 336.00 W/m2
10:04 72.7 °F 50.1 °F 29.89 in SSE 13.8 mph 9 mph 45% 0 in 346.00 W/m2
10:09 73 °F 52.1 °F 29.89 in SSE 11.5 mph 8.3 mph 48% 0 in 592.00 W/m2
10:14 74 °F 52.5 °F 29.88 in SSE 11.5 mph 7.7 mph 47% 0 in 619.00 W/m2
10:19 74.6 °F 52.4 °F 29.88 in SSE 12.7 mph 10.7 mph 46% 0 in 724.00 W/m2
10:24 75.2 °F 51.2 °F 29.88 in SE 14 mph 8.3 mph 43% 0 in 559.00 W/m2
10:29 75.2 °F 51.2 °F 29.88 in SSE 13.8 mph 11.4 mph 43% 0 in 501.00 W/m2
10:34 75.1 °F 51.1 °F 29.88 in South 11.5 mph 8.3 mph 43% 0 in 362.00 W/m2
10:39 74.7 °F 50.7 °F 29.88 in South 15 mph 8.7 mph 43% 0 in 492.00 W/m2
10:44 74.8 °F 51.4 °F 29.88 in SSE 13 mph 11.2 mph 44% 0 in 341.00 W/m2
10:49 74.6 °F 51.2 °F 29.88 in South 11.5 mph 8.7 mph 44% 0 in 387.00 W/m2
10:54 75 °F 52.8 °F 29.87 in SSE 12 mph 8.5 mph 46% 0 in 728.00 W/m2
10:59 75.4 °F 52 °F 29.87 in SSE 12.7 mph 9.1 mph 44% 0 in 443.00 W/m2
11:04 75.6 °F 52.1 °F 29.87 in SSE 16.1 mph 9.7 mph 44% 0 in 462.00 W/m2
11:09 75.7 °F 52.2 °F 29.86 in South 12.7 mph 9.8 mph 44% 0 in 441.00 W/m2
11:14 75.5 °F 51.4 °F 29.86 in SSW 17.3 mph 7.4 mph 43% 0 in 434.00 W/m2
11:19 75.7 °F 52.2 °F 29.86 in SW 11.5 mph 5.4 mph 44% 0 in 596.00 W/m2
11:24 76.1 °F 52.6 °F 29.86 in SSE 11 mph 8.4 mph 44% 0 in 564.00 W/m2
11:29 76.5 °F 52.3 °F 29.86 in SSW 12.7 mph 8 mph 43% 0 in 635.00 W/m2
11:34 76.5 °F 52.3 °F 29.86 in SSE 10.4 mph 6.4 mph 43% 0 in 387.00 W/m2
11:39 75.9 °F 51.8 °F 29.85 in SSE 13 mph 10.5 mph 43% 0 in 378.00 W/m2
11:44 75.6 °F 52.1 °F 29.85 in SSW 10.4 mph 5.1 mph 44% 0 in 325.00 W/m2
11:49 75.5 °F 52.7 °F 29.85 in SW 7 mph 5.4 mph 45% 0 in 315.00 W/m2
11:54 75.1 °F 51.7 °F 29.85 in SSW 11.5 mph 6.9 mph 44% 0 in 246.00 W/m2
11:59 74.8 °F 50.8 °F 29.85 in South 12.7 mph 9.2 mph 43% 0 in 257.00 W/m2
12:04 74.6 °F 51.2 °F 29.85 in SSE 10.4 mph 7.7 mph 44% 0 in 160.00 W/m2
12:09 74.2 °F 50.9 °F 29.85 in SSW 9.2 mph 3.7 mph 44% 0 in 163.00 W/m2
12:14 74.1 °F 51.4 °F 29.85 in SSE 10 mph 5.4 mph 45% 0 in 188.00 W/m2
12:19 74 °F 51.3 °F 29.85 in South 10.4 mph 3.5 mph 45% 0 in 206.00 W/m2
12:24 73.9 °F 51.8 °F 29.84 in SSW 6 mph 2.3 mph 46% 0 in 197.00 W/m2
12:29 73.7 °F 51 °F 29.85 in SW 11.5 mph 5.9 mph 45% 0 in 167.00 W/m2
12:34 73.6 °F 52.1 °F 29.84 in SW 9 mph 3.2 mph 47% 0 in 188.00 W/m2
12:39 73.5 °F 52 °F 29.84 in SSW 8.1 mph 3.1 mph 47% 0 in 146.00 W/m2
12:44 73.3 °F 51.3 °F 29.84 in SW 8.1 mph 4.5 mph 46% 0 in 132.00 W/m2
12:49 73.1 °F 51.1 °F 29.84 in SSW 7 mph 4.2 mph 46% 0 in 139.00 W/m2
12:54 73 °F 51.6 °F 29.84 in SW 8.1 mph 4.9 mph 47% 0 in 155.00 W/m2
12:59 72.9 °F 52.1 °F 29.84 in WSW 5.8 mph 5.1 mph 48% 0 in 153.00 W/m2
13:04 72.9 °F 53.2 °F 29.84 in SSW 4.6 mph 2.4 mph 50% 0 in 171.00 W/m2
13:09 72.8 °F 52.5 °F 29.84 in South 9.2 mph 4.3 mph 49% 0 in 139.00 W/m2
13:14 72.7 °F 52.4 °F 29.84 in SSW 6.9 mph 4.6 mph 49% 0 in 163.00 W/m2
13:19 72.6 °F 51.8 °F 29.84 in WSW 10.4 mph 6.5 mph 48% 0 in 153.00 W/m2
13:24 72.5 °F 51.7 °F 29.84 in SW 6.9 mph 5.1 mph 48% 0 in 111.00 W/m2
13:29 72.3 °F 51.5 °F 29.83 in SSW 9.2 mph 5.3 mph 48% 0 in 100.00 W/m2
13:34 72.1 °F 51.3 °F 29.83 in SW 9.2 mph 4.8 mph 48% 0 in 81.00 W/m2
13:39 71.6 °F 53.6 °F 29.84 in WSW 16.1 mph 10.3 mph 53% 0 in 60.00 W/m2
13:44 70.1 °F 54.2 °F 29.84 in WSW 15 mph 8.9 mph 57% 0 in 90.00 W/m2
13:49 69.2 °F 54.7 °F 29.84 in WSW 11 mph 6.9 mph 60% 0 in 121.00 W/m2
13:54 68.9 °F 55.3 °F 29.83 in WNW 8.1 mph 3.2 mph 62% 0 in 308.00 W/m2
13:59 68.8 °F 58.2 °F 29.83 in WNW 16 mph 7.9 mph 69% 0 in 715.00 W/m2
14:04 67.6 °F 59 °F 29.82 in West 17.3 mph 9.5 mph 74% 0 in 408.00 W/m2
14:09 67 °F 59.2 °F 29.82 in West 13 mph 8.5 mph 76% 0 in 387.00 W/m2
14:14 66.8 °F 59.4 °F 29.82 in NW 12.7 mph 7.8 mph 77% 0 in 371.00 W/m2
14:19 66.7 °F 59.3 °F 29.82 in WNW 11.5 mph 5.1 mph 77% 0 in 332.00 W/m2
14:24 66.8 °F 59 °F 29.82 in WNW 10.4 mph 5.7 mph 76% 0 in 299.00 W/m2
14:29 66.8 °F 58.6 °F 29.82 in WNW 6.9 mph 4.5 mph 75% 0 in 264.00 W/m2
14:34 66.9 °F 58.3 °F 29.82 in NW 6.9 mph 3.9 mph 74% 0 in 281.00 W/m2
14:39 67.1 °F 58.2 °F 29.82 in WNW 7 mph 5.4 mph 73% 0 in 199.00 W/m2
14:44 67.1 °F 56.6 °F 29.82 in WNW 11.5 mph 4 mph 69% 0 in 267.00 W/m2
14:49 67.3 °F 56.4 °F 29.82 in WNW 11.5 mph 6.2 mph 68% 0 in 432.00 W/m2
14:54 67.8 °F 56.9 °F 29.82 in West 9 mph 4.9 mph 68% 0 in 413.00 W/m2
14:59 67.9 °F 56.5 °F 29.82 in WNW 9.2 mph 4.9 mph 67% 0 in 355.00 W/m2
15:04 68 °F 56.2 °F 29.82 in WSW 10.4 mph 8.1 mph 66% 0 in 543.00 W/m2
15:09 68.1 °F 55.5 °F 29.81 in West 13.8 mph 7.1 mph 64% 0 in 329.00 W/m2
15:14 68.4 °F 56.6 °F 29.81 in West 8.1 mph 5.3 mph 66% 0 in 759.00 W/m2
15:19 69.4 °F 56.7 °F 29.81 in WNW 8.1 mph 2.5 mph 64% 0 in 710.00 W/m2
15:24 69.8 °F 54.8 °F 29.80 in WNW 9.2 mph 5.2 mph 59% 0 in 417.00 W/m2
15:29 69.6 °F 54.6 °F 29.80 in WSW 8.1 mph 5.6 mph 59% 0 in 628.00 W/m2
15:34 69.8 °F 55.3 °F 29.80 in WNW 8.1 mph 6.1 mph 60% 0 in 911.00 W/m2
15:39 70.7 °F 56.6 °F 29.80 in NNW 11.5 mph 6.5 mph 61% 0 in 863.00 W/m2
15:44 71.1 °F 55.1 °F 29.80 in West 11.5 mph 4 mph 57% 0 in 338.00 W/m2
15:49 70.8 °F 54.3 °F 29.79 in WSW 6.9 mph 5.7 mph 56% 0 in 294.00 W/m2
15:54 70.7 °F 54.2 °F 29.79 in NW 12.7 mph 6.6 mph 56% 0 in 517.00 W/m2
15:59 71.1 °F 53.1 °F 29.79 in WNW 11.5 mph 8.1 mph 53% 0 in 793.00 W/m2
16:04 71 °F 52.5 °F 29.79 in NW 8.1 mph 5.5 mph 52% 0 in 698.00 W/m2
16:09 71.2 °F 53.2 °F 29.79 in WNW 10.4 mph 5.7 mph 53% 0 in 592.00 W/m2
16:14 70.8 °F 51.8 °F 29.79 in WNW 8.1 mph 4.9 mph 51% 0 in 520.00 W/m2
16:19 70.2 °F 51.7 °F 29.78 in NW 9.2 mph 5.3 mph 52% 0 in 315.00 W/m2
16:24 69.3 °F 51.4 °F 29.78 in WNW 11 mph 4.7 mph 53% 0 in 283.00 W/m2
16:29 68.9 °F 51.1 °F 29.78 in West 5 mph 3.6 mph 53% 0 in 272.00 W/m2
16:34 68.6 °F 50.8 °F 29.78 in NW 9.2 mph 4.3 mph 53% 0 in 272.00 W/m2
16:39 68.5 °F 52.2 °F 29.78 in West 5.8 mph 2 mph 56% 0 in 199.00 W/m2
16:44 68.2 °F 50.9 °F 29.78 in West 6.9 mph 3.5 mph 54% 0 in 135.00 W/m2
16:49 67.8 °F 51.5 °F 29.78 in NW 8.1 mph 2.4 mph 56% 0 in 109.00 W/m2
16:54 67.6 °F 51.8 °F 29.78 in WNW 4.6 mph 5 mph 57% 0 in 91.00 W/m2
16:59 67.2 °F 51.4 °F 29.78 in WSW 10.4 mph 4.4 mph 57% 0 in 100.00 W/m2
17:04 67.1 °F 51.8 °F 29.78 in NW 4.6 mph 4.8 mph 58% 0 in 111.00 W/m2
17:09 67 °F 52.2 °F 29.78 in WSW 6.9 mph 4.1 mph 59% 0 in 105.00 W/m2
17:14 67 °F 52.2 °F 29.78 in NW 8.1 mph 3.4 mph 59% 0 in 81.00 W/m2
17:19 67 °F 52.7 °F 29.78 in West 3.5 mph 1.3 mph 60% 0 in 90.00 W/m2
17:24 67.1 °F 52.7 °F 29.78 in West 6.9 mph 5.4 mph 60% 0 in 95.00 W/m2
17:29 67 °F 53.1 °F 29.78 in West 6.9 mph 4 mph 61% 0 in 88.00 W/m2
17:34 66.8 °F 53.4 °F 29.78 in WNW 4.6 mph 2.1 mph 62% 0 in 72.00 W/m2
17:39 66.6 °F 53.2 °F 29.78 in West 6.9 mph 3.2 mph 62% 0 in 56.00 W/m2
17:44 66.1 °F 53.6 °F 29.78 in West 9.2 mph 6.3 mph 64% 0 in 30.00 W/m2
17:49 65.7 °F 54.4 °F 29.79 in West 10.4 mph 5.6 mph 67% 0 in 18.00 W/m2
17:54 64.9 °F 54.5 °F 29.80 in WSW 10.4 mph 4.9 mph 69% 0 in 11.00 W/m2
17:59 64.3 °F 55.5 °F 29.81 in South 5 mph 3.9 mph 73% 0.01 in 9.00 W/m2
18:04 63.5 °F 56.2 °F 29.82 in South 8.1 mph 6.6 mph 77% 0.01 in 12.00 W/m2
18:09 62.4 °F 56.5 °F 29.82 in South 8.1 mph 7.4 mph 81% 0.03 in 18.00 W/m2
18:14 61.3 °F 56.8 °F 29.82 in SSE 10.4 mph 7.4 mph 85% 0.05 in 19.00 W/m2
18:19 60.5 °F 56.6 °F 29.82 in SSE 10.4 mph 8.5 mph 87% 0.06 in 23.00 W/m2
18:24 60 °F 56.7 °F 29.82 in SE 10.4 mph 6.9 mph 89% 0.07 in 26.00 W/m2
18:29 59.5 °F 56.6 °F 29.82 in SE 10.4 mph 7.1 mph 90% 0.07 in 28.00 W/m2
18:34 59.3 °F 56.7 °F 29.82 in SSE 11.5 mph 7.4 mph 91% 0.08 in 30.00 W/m2
18:39 59.2 °F 56.9 °F 29.82 in SE 8.1 mph 5 mph 92% 0.09 in 28.00 W/m2
18:44 59.1 °F 56.8 °F 29.82 in SSE 10.4 mph 8.2 mph 92% 0.09 in 25.00 W/m2
18:49 59 °F 56.7 °F 29.82 in SE 7 mph 6.5 mph 92% 0.09 in 23.00 W/m2
18:54 58.8 °F 56.5 °F 29.82 in SE 6.9 mph 5.1 mph 92% 0.1 in 21.00 W/m2
18:59 58.7 °F 56.7 °F 29.81 in SSE 9.2 mph 4.2 mph 93% 0.09 in 18.00 W/m2
19:04 58.5 °F 56.5 °F 29.82 in SSE 6.9 mph 3.6 mph 93% 0.09 in 11.00 W/m2
19:09 58.4 °F 56.4 °F 29.81 in South 2.3 mph 1.3 mph 93% 0.08 in 9.00 W/m2
19:14 58.5 °F 56.5 °F 29.81 in South 3 mph 1.7 mph 93% 0.07 in 9.00 W/m2
19:19 58.5 °F 56.5 °F 29.81 in SSW 3.5 mph 1.9 mph 93% 0.07 in 9.00 W/m2
19:24 58.4 °F 56.4 °F 29.80 in SSE 3.5 mph 2.8 mph 93% 0.07 in 11.00 W/m2
19:29 58.4 °F 56.4 °F 29.80 in South 5.8 mph 4.1 mph 93% 0.07 in 11.00 W/m2
19:34 58.2 °F 56.2 °F 29.80 in South 4.6 mph 2.9 mph 93% 0.06 in 11.00 W/m2
19:39 58.2 °F 56.2 °F 29.79 in South 3 mph 2.5 mph 93% 0.05 in 9.00 W/m2
19:44 58.3 °F 56.3 °F 29.79 in SSE 5.8 mph 3.6 mph 93% 0.05 in 9.00 W/m2
19:49 58.4 °F 56.4 °F 29.79 in South 5.8 mph 3.1 mph 93% 0.05 in 7.00 W/m2
19:54 58.4 °F 56.4 °F 29.79 in SSE 6.9 mph 4.2 mph 93% 0.05 in 9.00 W/m2
19:59 58.3 °F 56.3 °F 29.78 in SSE 3.5 mph 3.4 mph 93% 0.05 in 9.00 W/m2
20:04 58.3 °F 56.3 °F 29.77 in SSE 4.6 mph 1.3 mph 93% 0.05 in 7.00 W/m2
20:09 58.3 °F 56.3 °F 29.77 in SSW 3.5 mph 0.8 mph 93% 0.04 in 5.00 W/m2
20:14 58.4 °F 56.4 °F 29.77 in South 4.6 mph 3 mph 93% 0.03 in 0.00 W/m2
20:19 58.3 °F 56.3 °F 29.76 in South 3.5 mph 1.9 mph 93% 0.02 in 0.00 W/m2
20:24 58.3 °F 56.6 °F 29.76 in South 3.5 mph 0.5 mph 94% 0.01 in 0.00 W/m2
20:29 58.2 °F 56.5 °F 29.76 in South 3.5 mph 2.5 mph 94% 0.01 in 0.00 W/m2
20:34 58.1 °F 56.4 °F 29.76 in South 3.5 mph 0.7 mph 94% 0.01 in 0.00 W/m2
20:39 58.1 °F 56.4 °F 29.76 in South 3.5 mph 0.1 mph 94% 0.01 in 0.00 W/m2
20:44 58 °F 56.3 °F 29.76 in South 2.3 mph 0.1 mph 94% 0.01 in 0.00 W/m2
20:49 57.9 °F 56.2 °F 29.76 in South 3.5 mph 0.1 mph 94% 0.01 in 0.00 W/m2
20:54 57.9 °F 56.2 °F 29.76 in South 3.5 mph 0.3 mph 94% 0 in 0.00 W/m2
20:59 57.9 °F 56.2 °F 29.76 in SSW 2.3 mph 0.9 mph 94% 0 in 0.00 W/m2
21:04 57.8 °F 56.1 °F 29.76 in SSW 4.6 mph 3.4 mph 94% 0 in 0.00 W/m2
21:09 57.8 °F 56.1 °F 29.77 in SSW 3.5 mph 1.4 mph 94% 0 in 0.00 W/m2
21:14 57.7 °F 56 °F 29.77 in South 3.5 mph 1.7 mph 94% 0 in 0.00 W/m2
21:19 57.8 °F 56.1 °F 29.77 in South 5.8 mph 0.6 mph 94% 0 in 0.00 W/m2
21:24 57.8 °F 56.1 °F 29.77 in SSW 5 mph 0.2 mph 94% 0 in 0.00 W/m2
21:29 57.8 °F 56.1 °F 29.77 in South 1.2 mph   94% 0 in 0.00 W/m2
21:34 57.9 °F 56.2 °F 29.77 in SSW 3.5 mph 0.4 mph 94% 0 in 0.00 W/m2
21:39 57.9 °F 56.2 °F 29.77 in SSW 5.8 mph 3.4 mph 94% 0 in 0.00 W/m2
21:44 57.9 °F 56.2 °F 29.77 in South 4.6 mph 2.6 mph 94% 0.01 in 0.00 W/m2
21:49 57.9 °F 56.2 °F 29.77 in SSW 3.5 mph 2.1 mph 94% 0.01 in 0.00 W/m2
21:54 57.9 °F 56.2 °F 29.77 in SSW 4.6 mph 2.3 mph 94% 0.01 in 0.00 W/m2
21:59 57.9 °F 56.2 °F 29.77 in SSW 4.6 mph 2.1 mph 94% 0.02 in 0.00 W/m2
22:04 57.9 °F 56.2 °F 29.77 in SW 3.5 mph 1.8 mph 94% 0.02 in 0.00 W/m2
22:09 58 °F 56.3 °F 29.77 in SW 3.5 mph 2 mph 94% 0.02 in 0.00 W/m2
22:14 58 °F 56.3 °F 29.77 in SSE 6.9 mph 3.9 mph 94% 0.03 in 0.00 W/m2
22:19 57.9 °F 56.2 °F 29.77 in SSW 6.9 mph 2.5 mph 94% 0.04 in 0.00 W/m2
22:24 57.9 °F 56.2 °F 29.77 in SW 5 mph 2.8 mph 94% 0.04 in 0.00 W/m2
22:29 57.8 °F 56.1 °F 29.77 in SSW 3.5 mph 1.8 mph 94% 0.05 in 0.00 W/m2
22:35 57.9 °F 56.2 °F 29.76 in South 5.8 mph 1.8 mph 94% 0.05 in 0.00 W/m2
22:39 57.8 °F 56.1 °F 29.76 in SW 4.6 mph 2.4 mph 94% 0.06 in 0.00 W/m2
22:44 57.8 °F 56.1 °F 29.76 in SSW 4.6 mph 2.6 mph 94% 0.05 in 0.00 W/m2
22:49 57.9 °F 56.2 °F 29.76 in SSW 3.5 mph 2.9 mph 94% 0.05 in 0.00 W/m2
22:54 57.8 °F 56.1 °F 29.76 in SW 3.5 mph 2.1 mph 94% 0.05 in 0.00 W/m2
22:59 57.8 °F 56.1 °F 29.76 in South 1 mph 0.7 mph 94% 0.05 in 0.00 W/m2
23:04 57.8 °F 56.1 °F 29.76 in SSW 5.8 mph 0.9 mph 94% 0.05 in 0.00 W/m2
23:09 57.7 °F 56 °F 29.75 in South 3.5 mph 0.5 mph 94% 0.05 in 0.00 W/m2
23:14 57.8 °F 56.1 °F 29.75 in SSW 1.2 mph 0.7 mph 94% 0.04 in 0.00 W/m2
23:19 57.8 °F 56.1 °F 29.75 in South 3.5 mph 0.4 mph 94% 0.03 in 0.00 W/m2
23:24 57.8 °F 56.1 °F 29.75 in SSW 3.5 mph 0.3 mph 94% 0.03 in 0.00 W/m2
23:29 57.8 °F 56.1 °F 29.75 in SW 3.5 mph 0.5 mph 94% 0.03 in 0.00 W/m2
23:34 57.8 °F 56.1 °F 29.74 in SSW 3.5 mph 0.5 mph 94% 0.03 in 0.00 W/m2
23:39 57.8 °F 56.1 °F 29.74 in SW 2.3 mph 0.2 mph 94% 0.03 in 0.00 W/m2
23:44 57.8 °F 56.1 °F 29.74 in WSW 3.5 mph 1.7 mph 94% 0.04 in 0.00 W/m2
23:49 58 °F 56.3 °F 29.74 in West 3.5 mph 2.5 mph 94% 0.05 in 0.00 W/m2
23:54 57.9 °F 56.2 °F 29.74 in WSW 3.5 mph 2.7 mph 94% 0.08 in 0.00 W/m2
23:59 57.8 °F 56.1 °F 29.74 in WNW 9.2 mph 4.4 mph 94% 0.11 in 0.00 W/m2
Bourbonnais, Illinois, USA
Compliments of Weather Underground - 4 mb